Notices

Due to recent upgrades, we are currently experiencing delays in populating our data report tables. We thank you for your patience during this time of difficulty as we are working in rectifying this issue as soon as possible. If you have any questions or concerns, please contact us.

Hourly Data Report for November 03, 2012

BAGOTVILLE A
QUEBEC

48°20'00.000" N
71°00'00.000" W
159.10 m
7060400
71727
YBG

Download Data

Hourly Data (November 2012)
Hourly Data Report for November 3, 2012
TIME
LST
Temp Definition
°C
Dew Point Definition
°C
Rel Hum Definition
%
Precip. Amount Definition
mm

Wind Dir Definition
10's deg

Wind Spd Definition
km/h
Visibility Definition
km
Stn Press Definition
kPa
Hmdx Definition


Wind Chill Definition


Weather Definition


00:00 6.0 5.0 93   28 15 4.8 98.16     Drizzle, Fog
01:00 5.6 4.3 91   28 24 8.0 98.19     Drizzle, Fog
02:00 5.4 4.4 93   28 22 6.4 98.22     Rain Showers, Fog
03:00 5.1 3.8 91   27 19 6.4 98.21     Rain Showers, Fog
04:00 5.0 3.7 91   28 17 8.0 98.23     Rain Showers, Fog
05:00 5.0 3.5 90   28 19 9.7 98.25     Fog
06:00 5.1 3.4 89   29 20 16.1 98.31     Cloudy
07:00 5.2 3.7 90   28 19 16.1 98.37     Cloudy
08:00 5.5 3.8 89   28 19 16.1 98.41     Cloudy
09:00 5.5 4.2 91   28 17 11.3 98.41     Cloudy
10:00 5.8 4.6 92   28 22 9.7 98.44     Drizzle, Fog
11:00 5.9 4.9 93   28 22 1.6 98.42     Drizzle, Fog
12:00 6.1 4.9 92   29 24 16.1 98.44     Rain Showers
13:00 6.0 4.8 92   28 24 16.1 98.45     Rain Showers
14:00 6.1 4.9 92   27 24 16.1 98.46     Rain Showers
15:00 6.2 4.8 91   27 24 19.3 98.50     Rain Showers
16:00 6.1 4.4 89   28 26 16.1 98.55     Rain Showers
17:00 5.8 3.9 88   29 26 16.1 98.60     Rain Showers
18:00 5.6 4.6 93   30 19 16.1 98.66     Rain Showers
19:00 5.5 3.8 89   30 17 6.4 98.71     Rain Showers, Fog
20:00 4.6 2.2 84   29 20 9.7 98.78     Rain Showers
21:00 4.2 1.7 84   28 24 16.1 98.81     Rain Showers
22:00 3.9 0.7 80   29 22 24.1 98.83     Cloudy
23:00 3.4 0.1 79   29 22 24.1 98.84     Cloudy

Notes on Data Quality.

Legend

  • E = Estimated
  • M = Missing
  • NA = Not Available*
  • [empty] = Indicates an unobserved value
Date modified: